| time (UTC) | temp F | wind direction | speed MPH | gust MPH | rain 1hr in | rain 24hr in | rain mn in | humidity % | barometer mb |
| 20260906062405 | 57 | 264 | 0.0 | 0.0 | 0.00 | 0.01 | 0.01 | 81 | 1016.0 |
| 20260906060905 | 58 | 264 | 0.0 | 0.0 | 0.00 | 0.01 | 0.01 | 80 | 1016.0 |
| 20260906055405 | 58 | 263 | 0.0 | 0.0 | 0.00 | 0.01 | 0.01 | 79 | 1015.9 |
| 20260906053901 | 58 | 264 | 0.0 | 0.0 | 0.00 | 0.01 | 0.01 | 78 | 1016.0 |
| 20260906052400 | 59 | 264 | 0.0 | 0.0 | 0.00 | 0.01 | 0.01 | 77 | 1015.9 |
| 20260906050859 | 59 | 264 | 0.0 | 0.0 | 0.00 | 0.01 | 0.01 | 76 | 1016.0 |
| 20260906045357 | 59 | 264 | 0.0 | 0.0 | 0.00 | 0.01 | 0.01 | 77 | 1016.0 |
| 20260906043855 | 59 | 264 | 0.0 | 0.0 | 0.00 | 0.01 | 0.01 | 77 | 1016.0 |
| 20260906042352 | 59 | 264 | 0.0 | 0.0 | 0.00 | 0.01 | 0.01 | 77 | 1016.1 |
| 20260906041551 | 59 | 264 | 0.0 | 0.0 | 0.00 | 0.01 | 0.01 | 78 | 1016.1 |
| 20260906035347 | 59 | 274 | 0.0 | 1.0 | 0.00 | 0.01 | 0.01 | 77 | 1015.9 |
| 20260906033847 | 59 | 256 | 0.0 | 1.0 | 0.00 | 0.01 | 0.01 | 76 | 1015.7 |
| 20260906033053 | 59 | 197 | 0.0 | 0.0 | 0.00 | 0.01 | 0.01 | 76 | 1015.5 |
| 20260906030847 | 61 | 258 | 0.0 | 3.0 | 0.00 | 0.01 | 0.01 | 74 | 1015.4 |
| 20260906025346 | 61 | 274 | 0.0 | 0.0 | 0.00 | 0.01 | 0.01 | 71 | 1014.9 |
| 20260906023846 | 61 | 301 | 0.0 | 0.0 | 0.00 | 0.01 | 0.01 | 72 | 1014.9 |
| 20260906022345 | 61 | 301 | 0.0 | 0.0 | 0.00 | 0.01 | 0.01 | 71 | 1015.0 |
| 20260906020843 | 62 | 301 | 0.0 | 1.0 | 0.00 | 0.01 | 0.01 | 70 | 1015.1 |
| 20260906015341 | 61 | 275 | 0.0 | 1.0 | 0.01 | 0.01 | 0.01 | 68 | 1015.1 |
| 20260906013841 | 61 | 318 | 0.0 | 1.0 | 0.01 | 0.01 | 0.01 | 69 | 1015.0 |
| 20260906012340 | 62 | 324 | 0.0 | 0.0 | 0.01 | 0.01 | 0.01 | 70 | 1014.8 |
| 20260906010837 | 63 | 310 | 0.0 | 4.0 | 0.01 | 0.01 | 0.01 | 68 | 1014.7 |
| 20260906005335 | 67 | 263 | 1.0 | 10.0 | 0.00 | 0.00 | 0.00 | 57 | 1014.5 |
| 20260906003835 | 72 | 210 | 1.0 | 9.0 | 0.00 | 0.00 | 0.00 | 38 | 1013.6 |
| 20260906002335 | 73 | 308 | 1.0 | 7.0 | 0.00 | 0.00 | 0.00 | 32 | 1013.1 |
| 20260906000834 | 74 | 315 | 1.0 | 5.0 | 0.00 | 0.00 | 0.00 | 30 | 1013.0 |
| 20260905235335 | 75 | 287 | 1.0 | 4.0 | 0.00 | 0.00 | 0.00 | 29 | 1012.9 |
| 20260905234523 | 76 | 270 | 0.0 | 4.0 | 0.00 | 0.00 | 0.00 | 26 | 1012.8 |
| 20260905232328 | 75 | 340 | 0.0 | 2.0 | 0.00 | 0.00 | 0.00 | 26 | 1013.1 |
| 20260905230828 | 74 | 335 | 1.0 | 14.0 | 0.00 | 0.00 | 0.00 | 25 | 1013.2 |
| 20260905225329 | 75 | 354 | 0.0 | 6.0 | 0.00 | 0.00 | 0.00 | 25 | 1013.3 |
| 20260905223828 | 74 | 301 | 1.0 | 6.0 | 0.00 | 0.00 | 0.00 | 27 | 1013.5 |
| 20260905222328 | 74 | 252 | 1.0 | 10.0 | 0.00 | 0.00 | 0.00 | 27 | 1013.8 |
| 20260905220828 | 74 | 291 | 0.0 | 6.0 | 0.00 | 0.00 | 0.00 | 29 | 1014.0 |
| 20260905215328 | 73 | 265 | 0.0 | 2.0 | 0.00 | 0.00 | 0.00 | 30 | 1014.2 |
| 20260905213828 | 72 | 12 | 0.0 | 6.0 | 0.00 | 0.00 | 0.00 | 30 | 1014.3 |
| 20260905212328 | 71 | 16 | 0.0 | 5.0 | 0.00 | 0.00 | 0.00 | 34 | 1014.5 |
| 20260905210828 | 70 | 262 | 0.0 | 7.0 | 0.00 | 0.00 | 0.00 | 35 | 1014.7 |
| 20260905205328 | 69 | 295 | 0.0 | 6.0 | 0.00 | 0.00 | 0.00 | 35 | 1014.9 |
| 20260905203827 | 69 | 193 | 0.0 | 9.0 | 0.00 | 0.00 | 0.00 | 36 | 1014.9 |
| 20260905202328 | 69 | 326 | 0.0 | 3.0 | 0.00 | 0.00 | 0.00 | 37 | 1015.0 |
| 20260905201525 | 68 | 244 | 0.0 | 2.0 | 0.00 | 0.00 | 0.00 | 44 | 1015.2 |
| 20260905195326 | 67 | 222 | 0.0 | 1.0 | 0.00 | 0.00 | 0.00 | 44 | 1015.3 |
| 20260905194532 | 66 | 181 | 0.0 | 1.0 | 0.00 | 0.00 | 0.00 | 52 | 1015.5 |
| 20260905192322 | 65 | 250 | 0.0 | 0.0 | 0.00 | 0.00 | 0.00 | 54 | 1015.8 |
| 20260905190820 | 64 | 264 | 0.0 | 1.0 | 0.00 | 0.00 | 0.00 | 56 | 1016.1 |
| 20260905190028 | 62 | 243 | 0.0 | 2.0 | 0.00 | 0.00 | 0.00 | 58 | 1016.3 |
| 20260905185910 | 61 | 265 | 0.0 | 1.0 | 0.00 | 0.00 | 0.00 | 61 | 1016.5 |
| 20260905182310 | 60 | 235 | 0.0 | 1.0 | 0.00 | 0.00 | 0.00 | 63 | 1016.7 |
| 20260905180810 | 59 | 332 | 0.0 | 0.0 | 0.00 | 0.00 | 0.00 | 66 | 1016.8 |
| 20260905175311 | 58 | 286 | 0.0 | 1.0 | 0.00 | 0.00 | 0.00 | 68 | 1016.9 |
| 20260905173810 | 56 | 238 | 0.0 | 1.0 | 0.00 | 0.00 | 0.00 | 71 | 1017.1 |
| 20260905172310 | 55 | 260 | 0.0 | 2.0 | 0.00 | 0.00 | 0.00 | 73 | 1017.2 |
| 20260905170810 | 54 | 276 | 0.0 | 0.0 | 0.00 | 0.00 | 0.00 | 75 | 1017.3 |
| 20260905165307 | 53 | 291 | 0.0 | 0.0 | 0.00 | 0.00 | 0.00 | 76 | 1017.3 |
| 20260905163807 | 52 | 260 | 0.0 | 1.0 | 0.00 | 0.00 | 0.00 | 79 | 1017.6 |
| 20260905162306 | 51 | 273 | 0.0 | 0.0 | 0.00 | 0.00 | 0.00 | 82 | 1017.7 |
| 20260905162148 | 50 | 272 | 0.0 | 0.0 | 0.00 | 0.00 | 0.00 | 85 | 1017.8 |
| 20260905155306 | 49 | 273 | 0.0 | 1.0 | 0.00 | 0.01 | 0.00 | 87 | 1018.0 |
| 20260905153803 | 48 | 273 | 0.0 | 0.0 | 0.00 | 0.01 | 0.00 | 86 | 1018.1 |
| 20260905152259 | 48 | 275 | 0.0 | 0.0 | 0.00 | 0.01 | 0.00 | 86 | 1018.2 |
| 20260905150757 | 47 | 231 | 0.0 | 0.0 | 0.00 | 0.01 | 0.00 | 87 | 1018.1 |
| 20260905145951 | 47 | 231 | 0.0 | 1.0 | 0.00 | 0.01 | 0.00 | 87 | 1018.2 |
| 20260905144457 | 46 | 214 | 0.0 | 1.0 | 0.00 | 0.01 | 0.00 | 87 | 1018.1 |
| 20260905142257 | 46 | 216 | 0.0 | 0.0 | 0.00 | 0.01 | 0.00 | 86 | 1017.9 |
| 20260905140758 | 46 | 215 | 0.0 | 0.0 | 0.00 | 0.01 | 0.00 | 86 | 1017.7 |
| 20260905135255 | 46 | 215 | 0.0 | 0.0 | 0.00 | 0.01 | 0.00 | 86 | 1017.6 |
| 20260905133755 | 46 | 216 | 0.0 | 0.0 | 0.00 | 0.01 | 0.00 | 86 | 1017.5 |
| 20260905133003 | 46 | 216 | 0.0 | 0.0 | 0.00 | 0.01 | 0.00 | 86 | 1017.5 |
| 20260905130756 | 47 | 215 | 0.0 | 0.0 | 0.00 | 0.01 | 0.00 | 86 | 1017.6 |
| 20260905125258 | 47 | 215 | 0.0 | 0.0 | 0.00 | 0.01 | 0.00 | 85 | 1017.6 |
| 20260905123754 | 47 | 216 | 0.0 | 0.0 | 0.00 | 0.01 | 0.00 | 85 | 1017.5 |
| 20260905122253 | 48 | 216 | 0.0 | 0.0 | 0.00 | 0.01 | 0.00 | 85 | 1017.5 |
| 20260905120753 | 48 | 216 | 0.0 | 0.0 | 0.00 | 0.01 | 0.00 | 85 | 1017.5 |
| 20260905115254 | 48 | 216 | 0.0 | 0.0 | 0.00 | 0.01 | 0.00 | 84 | 1017.3 |
| 20260905113754 | 49 | 216 | 0.0 | 0.0 | 0.00 | 0.01 | 0.00 | 84 | 1017.5 |
| 20260905112253 | 49 | 216 | 0.0 | 0.0 | 0.00 | 0.01 | 0.00 | 84 | 1017.5 |
| 20260905110753 | 49 | 216 | 0.0 | 0.0 | 0.00 | 0.01 | 0.00 | 84 | 1017.5 |
| 20260905105253 | 49 | 215 | 0.0 | 0.0 | 0.00 | 0.01 | 0.00 | 84 | 1017.3 |
| 20260905103753 | 50 | 215 | 0.0 | 0.0 | 0.00 | 0.01 | 0.00 | 84 | 1017.3 |
| 20260905102252 | 49 | 216 | 0.0 | 0.0 | 0.00 | 0.01 | 0.00 | 84 | 1017.5 |
| 20260905100754 | 50 | 215 | 0.0 | 0.0 | 0.00 | 0.01 | 0.00 | 83 | 1017.3 |
| 20260905095251 | 50 | 215 | 0.0 | 0.0 | 0.00 | 0.01 | 0.00 | 83 | 1017.3 |
| 20260905093749 | 50 | 216 | 0.0 | 0.0 | 0.00 | 0.01 | 0.00 | 83 | 1017.2 |
| 20260905092940 | 50 | 215 | 0.0 | 0.0 | 0.00 | 0.01 | 0.00 | 83 | 1017.1 |
| 20260905090747 | 49 | 216 | 0.0 | 0.0 | 0.00 | 0.01 | 0.00 | 83 | 1017.1 |
| 20260905085247 | 50 | 216 | 0.0 | 0.0 | 0.00 | 0.01 | 0.00 | 82 | 1017.1 |
| 20260905084446 | 50 | 215 | 0.0 | 1.0 | 0.00 | 0.01 | 0.00 | 82 | 1017.1 |
| 20260905082245 | 50 | 217 | 0.0 | 0.0 | 0.00 | 0.01 | 0.00 | 81 | 1017.1 |
| 20260905080742 | 51 | 217 | 0.0 | 0.0 | 0.00 | 0.01 | 0.00 | 81 | 1017.1 |
| 20260905075240 | 51 | 217 | 0.0 | 1.0 | 0.00 | 0.01 | 0.00 | 80 | 1017.0 |
| 20260905073738 | 51 | 217 | 0.0 | 0.0 | 0.00 | 0.01 | 0.00 | 79 | 1016.9 |
| 20260905072237 | 51 | 217 | 0.0 | 0.0 | 0.00 | 0.01 | 0.00 | 79 | 1017.0 |
| 20260905070738 | 52 | 217 | 0.0 | 0.0 | 0.00 | 0.01 | 0.00 | 79 | 1016.9 |
| 20260905065235 | 52 | 217 | 0.0 | 1.0 | 0.00 | 0.01 | 0.01 | 78 | 1016.9 |
| 20260905063736 | 53 | 218 | 0.0 | 1.0 | 0.00 | 0.01 | 0.01 | 77 | 1016.5 |